Regional Weather Roundup
Issued by NWS

Home | Current Version | Previous Version | Graphics & Text | Print | Product List | Glossary On
Versions: 1 2 3 4 5 6 7 8 9 10 11 12 13 14 15 16 17 18 19 20 21 22 23 24 25 26 27 28 29 30 31 32 33 34 35 36 37 38 39 40 41 42 43 44 45 46 47 48 49 50
000
ASUS43 KBIS 122320
RWRND

NORTH DAKOTA REGIONAL WEATHER ROUNDUP
NATIONAL WEATHER SERVICE BISMARCK ND
600 PM CDT SAT JUL 12 2014

NOTE: "FAIR" INDICATES FEW OR NO CLOUDS BELOW 12,000 FEET WITH NO
SIGNIFICANT WEATHER AND/OR OBSTRUCTIONS TO VISIBILITY.


NDZ001>003-009>011-017-130000-
NORTHWEST NORTH DAKOTA

CITY           SKY/WX    TMP DP  RH WIND       PRES   REMARKS
WILLISTON      SUNNY     84  47  27 NW21G28   30.07F
MINOT          SUNNY     80  49  33 W25G31    29.98F
$$

NDZ018>021-031>035-040>046-130000-
SOUTHWEST NORTH DAKOTA

CITY           SKY/WX    TMP DP  RH WIND       PRES   REMARKS
BISMARCK       MOSUNNY   83  57  41 W18G24    30.02F
DICKINSON      MOSUNNY   80  55  42 NW14      30.08F
GARRISON         N/A     79  54  41 NW16G24   30.03F
HETTINGER ARPT MOSUNNY   79  58  48 W14       30.12F
$$

NDZ004>008-012>016-024-026-027-054-130000-
NORTHEAST NORTH DAKOTA

CITY           SKY/WX    TMP DP  RH WIND       PRES   REMARKS
GRAND FORKS    MOSUNNY   79  54  41 W18G25    29.88F
DEVILS LAKE    SUNNY     79  54  41 W20       29.92S
$$

NDZ022-023-025-028>030-036>039-047>053-130000-
SOUTHEAST NORTH DAKOTA

CITY           SKY/WX    TMP DP  RH WIND       PRES   REMARKS
FARGO          MOSUNNY   81  57  43 W21G28    29.92F
JAMESTOWN      SUNNY     79  56  45 NW20G29   29.96F
$$




USA.gov is the U.S. government's official web portal to all federal, state and local government web resources and services.